Simultaneous Nadir Overpasses (SNOs) Predictions

Prediction of SNOs between METOP-B and NOAA-19 Satellite Orbit:

Table of predicted SNOs for the next 14.0 days since TLE Epoch: 7/18/2014
Index Date (METOP-B) Time (METOP-B) Lat,Lon (METOP-B) SZA (METOP-B ) Date (NOAA-19) Time (NOAA-19) Lat,Lon (NOAA-19) SZA (NOAA-19 ) Distance(km) Time Diff (sec)
1 07/24/2014 20:08:44 74.39,-126.44 54.65 07/24/2014 20:07:32 74.40,-127.71 54.72 38.17 72
2 07/24/2014 20:59:31 -74.14, 40.26 125.57 07/24/2014 20:58:32 -74.13, 40.25 125.58 1.43 59
3 07/24/2014 21:50:11 74.12,-152.46 54.42 07/24/2014 21:49:30 74.14,-152.52 54.45 3.02 41
4 07/24/2014 22:40:53 -74.12, 14.87 125.58 07/24/2014 22:40:35 -74.10, 14.80 125.59 2.52 18
5 07/24/2014 23:31:33 74.09,-177.86 54.41 07/24/2014 23:31:32 74.06,-177.84 54.38 3.18 1
6
